RH
4 4 5 4 3 3 3 3 3 3 3 3 3 3 3 3 3 3 3 4 5 7 9 11 12 13 14 14 15 16 16 15 13 12 11 10 9 9 8 8 9 11 14 17 20 24 29 31 32 31 29 26 23 20 19 19 20 20 20 20 21 21 22 24 25 25 25 25 26 27 30 32 32 31 31 33 35 37 40 43 45 46 47 48 48
3 3 3 3 3 3 3 3 3 3 3 3 3 3 3 3 3 3 5 6 7 8 9 11 12 14 14 15 16 16 17 17 17 16 16 15 14 12 11 10 10 9 10 13 15 17 22 27 31 35 36 34 32 28 24 23 23 23 23 23 22 22 22 23 24 25 26 26 26 27 28 31 34 36 35 36 37 39 40 41 43 45 45 47 47
3 3 2 3 3 3 3 3 3 3 3 3 3 2 2 3 4 5 5 7 8 11 14 18 20 20 19 20 20 21 22 22 23 22 21 20 19 18 16 14 13 11 10 10 11 13 17 20 25 31 36 38 37 36 32 29 27 26 27 27 26 25 25 25 25 25 26 26 27 26 26 27 31 34 36 37 38 39 40 40 40 41 42 43 45
2 2 2 3 3 3 3 2 3 3 3 3 2 2 3 4 5 6 7 10 15 20 26 28 28 26 25 26 27 28 28 27 28 28 27 27 26 24 22 20 17 15 13 12 11 11 13 16 19 24 30 36 38 39 38 36 32 29 28 29 28 28 29 28 27 27 27 28 28 28 28 28 27 28 31 34 36 38 40 41 42 44 45 45 45
2 2 3 3 3 3 3 2 3 3 3 3 3 3 4 5 6 9 13 18 22 28 32 31 28 29 31 32 32 31 28 27 26 25 26 27 28 29 28 26 23 19 16 14 13 12 13 14 17 20 25 31 34 36 39 40 38 35 32 30 28 28 30 30 29 27 27 29 29 29 30 33 33 31 29 31 34 36 38 42 44 45 47 48 47
2 2 3 2 2 2 2 3 3 3 4 4 4 4 6 9 14 18 21 24 29 32 33 31 30 33 36 36 33 28 24 21 19 18 19 22 26 30 31 30 28 24 21 19 17 15 15 16 19 22 25 29 31 34 38 41 42 39 35 32 30 28 29 30 29 28 27 28 29 28 28 32 36 37 36 35 35 36 37 40 43 42 42 44 44
3 3 2 2 3 2 2 3 3 4 4 4 5 9 15 20 25 27 28 30 33 34 31 31 35 39 40 36 29 22 17 14 12 11 12 14 18 24 30 32 30 27 26 24 22 21 22 24 26 28 30 31 33 35 37 40 40 39 37 35 32 29 29 29 28 27 27 28 29 30 27 27 31 36 37 36 37 38 35 37 42 41 39 41 42
2 3 2 2 2 2 2 3 4 5 7 9 14 21 27 31 33 33 33 35 36 35 33 36 41 43 39 31 22 16 12 10 9 8 9 10 12 16 23 28 29 29 28 27 26 26 26 27 27 29 33 36 38 39 41 41 38 37 37 34 30 28 28 28 27 25 25 25 29 31 29 27 30 32 32 33 37 38 33 33 40 41 38 40 43
3 3 3 2 2 2 3 6 10 13 15 19 25 32 37 39 39 37 37 38 38 36 37 41 45 44 35 25 18 13 11 10 9 9 8 8 8 10 14 19 22 23 23 23 24 23 22 22 23 24 27 31 34 36 38 37 34 32 31 28 26 26 25 26 25 25 24 24 26 28 27 28 33 34 33 35 37 36 32 31 38 41 38 39 44
3 2 3 4 3 3 6 12 18 21 22 24 29 35 40 42 42 41 40 40 40 40 42 46 48 43 33 23 18 15 12 11 11 11 11 10 10 10 10 12 14 14 16 17 17 17 18 18 20 22 25 28 32 35 37 38 36 34 33 33 34 35 34 33 30 29 28 26 27 28 26 28 35 37 36 37 36 35 33 32 36 39 37 37 41
8 12 18 16 10 7 9 17 25 29 33 35 36 39 42 44 45 44 43 42 42 43 45 49 49 43 33 24 20 17 16 16 16 15 14 13 13 13 13 15 16 16 17 19 20 23 26 29 33 38 42 47 51 54 57 57 56 54 53 52 52 52 52 51 48 45 42 37 34 33 29 29 35 37 36 37 36 35 34 32 33 36 36 37 39
26 32 38 31 20 15 15 17 24 33 42 48 49 47 45 45 46 47 46 45 45 46 48 51 50 43 33 26 22 21 22 22 21 20 19 18 18 21 23 25 27 28 29 32 37 41 45 48 52 55 58 61 63 65 66 66 66 65 61 57 54 53 52 52 54 56 57 54 51 48 42 36 36 36 35 36 38 38 37 36 36 38 42 47 49
47 49 50 44 37 33 32 31 32 38 47 51 54 53 49 48 48 49 49 48 48 49 50 53 52 44 35 28 26 26 27 28 28 26 25 25 26 29 34 37 40 41 42 44 47 50 52 55 57 58 61 63 65 68 69 69 69 67 63 59 53 48 44 40 41 46 51 54 55 58 60 54 48 47 44 44 48 48 46 48 50 53 59 64 67
60 58 57 55 53 50 49 49 48 48 48 48 48 51 53 53 52 50 50 49 50 51 52 54 54 47 38 32 30 31 32 32 33 33 32 32 33 35 38 42 45 46 48 49 51 54 56 58 59 60 62 64 68 71 72 74 74 72 71 68 60 51 45 39 38 38 38 38 39 49 59 59 57 60 62 63 66 66 64 66 68 71 75 78 80
64 62 61 59 58 54 51 52 52 51 49 45 42 43 48 55 55 52 51 51 52 53 53 56 57 52 43 39 36 36 37 37 37 38 39 38 37 39 42 44 47 50 52 53 55 58 61 63 65 66 67 68 71 73 75 76 76 75 76 75 66 54 46 43 42 38 34 33 33 40 50 53 54 62 68 71 75 79 81 80 79 80 83 85 86
70 69 66 62 59 56 51 49 50 51 47 43 38 34 36 48 59 59 55 55 55 54 55 57 59 56 49 43 40 39 40 42 42 43 44 43 41 42 43 44 46 49 51 54 57 61 64 66 67 68 69 70 71 72 74 74 72 73 76 77 71 59 50 48 46 41 38 38 38 44 54 57 57 60 65 70 74 80 83 80 78 84 89 88 88
74 74 72 67 63 59 54 49 48 48 43 37 33 28 25 36 56 63 60 58 57 56 58 60 61 60 54 46 42 43 44 45 46 47 49 49 48 47 45 43 44 47 52 56 57 58 61 64 67 70 73 74 74 73 74 74 75 75 75 76 74 64 55 51 49 47 46 43 41 47 57 64 66 65 62 61 62 66 67 66 71 80 83 81 84
66 68 70 70 68 66 61 56 52 47 40 33 27 21 16 25 47 63 65 63 61 60 60 62 63 64 58 47 45 47 48 50 52 53 54 55 55 56 53 49 48 50 54 57 56 57 61 65 69 73 76 79 80 79 77 76 76 76 76 76 74 69 63 56 51 52 50 45 42 46 54 64 74 77 70 59 50 46 44 48 59 66 64 65 74
55 57 60 64 67 69 67 63 59 50 41 34 26 17 13 19 38 59 67 66 64 63 63 63 64 65 59 49 47 51 54 58 61 62 63 64 65 66 63 59 57 58 60 61 61 63 66 70 75 77 76 76 79 83 85 83 80 80 79 72 68 71 72 63 55 54 53 47 45 48 54 63 72 78 79 73 66 57 51 54 61 59 54 56 64
49 48 50 53 59 68 68 63 60 54 46 40 32 21 15 18 31 53 68 70 67 66 66 65 65 66 63 55 52 55 59 63 67 69 70 70 70 69 65 62 63 65 64 65 66 69 73 77 78 74 66 60 60 67 76 80 79 77 71 60 57 67 72 63 55 55 54 49 48 51 57 63 67 69 74 80 82 78 71 68 67 61 54 51 53
43 41 42 44 49 61 67 63 60 57 50 44 39 31 26 27 33 44 57 67 68 66 66 65 64 67 66 60 57 58 63 67 71 73 74 71 66 60 54 55 60 65 67 69 71 73 73 69 61 54 48 43 42 44 49 55 56 53 48 44 46 53 56 51 47 48 47 45 45 49 53 55 56 59 64 70 76 79 77 74 70 66 58 49 45
32 33 37 39 41 52 63 64 60 58 55 50 47 41 37 40 47 48 50 54 56 56 57 59 61 62 63 61 60 62 67 72 75 74 71 66 60 54 50 52 56 60 64 69 71 67 60 50 42 39 38 38 39 40 41 42 42 40 39 40 41 42 42 41 40 40 37 34 34 37 41 41 44 48 51 53 60 69 73 70 65 61 54 47 44
18 20 23 26 29 37 53 62 61 58 57 56 55 52 45 43 49 53 51 48 47 48 49 50 49 49 51 55 59 62 66 70 71 68 65 59 56 55 54 55 57 59 61 61 58 50 43 39 40 45 47 47 47 47 48 49 49 47 47 46 44 44 43 41 40 36 32 27 24 25 28 30 33 36 39 44 53 59 59 54 50 48 44 43 45
10 10 11 13 16 21 35 52 59 59 59 58 56 57 54 47 45 46 45 41 38 39 40 39 38 38 43 49 55 58 60 61 61 60 58 54 55 58 59 58 59 58 53 48 45 44 46 50 57 63 65 64 63 63 64 65 63 60 60 57 52 49 47 44 40 34 28 25 25 25 27 29 31 34 37 42 44 43 42 41 40 41 41 40 45
7 7 7 7 9 10 17 32 47 57 61 58 53 55 57 54 50 47 46 44 42 40 41 42 42 44 48 51 52 53 53 53 53 51 48 46 46 48 47 46 44 42 43 48 54 58 60 63 65 67 67 70 73 72 70 66 62 62 64 62 55 51 48 44 39 32 27 27 27 27 28 30 33 36 39 40 40 43 49 52 52 54 56 54 54
6 6 6 5 6 6 8 16 30 46 53 48 41 44 51 55 53 51 53 56 56 53 52 53 53 53 53 54 53 51 49 47 46 44 43 42 42 42 42 45 48 51 56 63 66 63 61 61 62 62 64 66 66 61 57 54 52 52 53 51 46 43 41 37 33 29 27 29 30 29 30 32 34 36 38 41 45 49 51 51 48 47 47 47 46
6 6 6 6 6 5 5 9 17 28 35 33 27 27 37 46 49 51 54 57 60 62 62 62 62 60 58 58 56 53 49 47 45 45 46 46 48 50 51 53 54 52 50 51 50 50 53 57 57 55 55 54 52 49 47 47 46 44 42 39 35 32 31 29 29 29 30 32 33 32 32 34 36 36 35 36 37 35 33 34 33 29 27 28 28
7 7 6 6 7 6 6 7 9 11 14 17 16 15 21 30 38 45 49 50 53 59 62 63 65 64 63 62 59 55 54 52 50 50 49 48 48 48 45 41 37 34 33 35 37 39 42 45 46 44 45 47 49 48 46 42 40 39 39 36 32 29 28 29 31 33 34 35 35 33 32 33 32 29 26 25 23 23 26 29 26 21 21 22 21
7 7 7 7 7 8 7 6 7 7 7 8 9 9 12 17 24 33 39 42 44 49 53 56 58 59 59 59 56 55 57 56 52 50 47 43 40 36 33 32 31 31 33 33 33 33 34 36 38 39 42 44 46 44 41 37 36 35 34 33 31 29 30 32 34 36 37 35 34 31 29 29 26 22 19 18 17 19 23 24 21 17 16 15 14
9 9 9 9 9 9 9 8 7 7 7 7 7 8 8 9 13 18 24 29 33 37 40 44 50 53 54 54 52 52 52 49 44 42 40 38 36 35 34 34 34 33 32 30 29 30 32 34 36 39 41 42 40 38 35 32 30 30 31 32 32 31 30 32 35 37 36 33 31 28 24 21 19 17 15 14 13 15 18 20 20 18 15 12 11
13 12 11 11 11 10 10 10 9 8 8 7 7 8 8 8 9 10 13 18 22 26 30 35 41 44 45 46 47 47 46 42 39 38 38 39 40 41 39 36 32 29 27 27 29 32 34 37 39 40 39 38 35 32 30 28 27 28 29 31 33 32 31 32 34 34 31 29 26 23 19 17 15 14 13 11 10 12 14 16 17 15 13 12 12
15 14 13 13 13 13 12 12 12 11 11 10 9 9 9 9 9 9 10 12 15 20 24 28 32 35 37 38 40 40 40 39 38 38 38 39 39 37 34 30 26 23 23 27 32 36 37 38 38 36 34 33 31 29 27 26 25 25 25 27 30 32 31 30 29 27 27 26 22 17 15 14 13 11 11 11 11 11 12 14 15 14 13 12 12
17 18 16 15 14 14 14 14 14 13 13 13 13 12 12 12 11 11 11 12 12 15 18 19 22 25 27 29 31 33 34 36 36 35 34 32 30 27 25 23 22 22 26 30 34 36 36 34 33 32 31 30 28 27 25 23 21 21 23 25 27 28 27 25 23 23 25 23 17 13 13 12 10 9 10 11 12 10 11 12 13 12 12 12 12
20 21 20 19 17 16 16 16 15 15 15 15 15 14 14 14 14 13 13 13 12 13 14 15 16 18 20 22 25 27 29 30 30 28 26 24 22 21 20 21 22 23 26 29 31 32 31 30 29 29 28 27 26 24 23 22 21 23 25 26 24 23 24 23 22 23 22 18 13 11 10 9 8 9 9 9 10 9 9 10 12 12 11 10 10
22 23 23 22 21 19 18 17 16 17 16 16 16 17 16 16 17 16 16 15 15 14 14 14 15 16 16 18 20 20 21 22 21 21 20 19 19 20 21 23 25 26 27 29 29 29 28 28 27 27 27 27 25 23 22 22 23 24 24 21 22 25 26 25 24 21 17 12 9 8 8 7 7 8 8 7 8 8 8 9 10 9 8 8 11
24 24 24 24 24 22 21 20 19 18 18 18 17 18 18 18 18 19 19 19 18 17 17 16 16 15 15 16 16 17 17 17 17 17 18 19 20 22 24 26 26 27 27 27 27 27 27 27 27 28 27 27 26 25 24 24 23 22 20 21 26 31 31 27 23 17 11 8 7 6 5 6 6 6 6 6 6 6 7 8 7 8 11 14 15
26 25 25 25 25 24 23 22 21 20 20 20 20 19 19 20 20 20 21 21 21 21 20 19 18 18 17 17 17 17 18 18 19 20 21 22 23 25 26 26 26 27 28 28 28 28 28 28 29 30 30 29 28 26 24 23 21 20 21 27 34 36 31 25 18 12 8 7 6 5 6 6 6 6 6 5 5 6 7 8 8 11 16 14 10
28 27 26 26 25 25 25 24 24 23 22 22 22 22 21 22 22 22 22 22 23 24 23 21 21 21 20 20 21 21 22 22 23 23 24 25 25 26 26 27 28 28 28 29 29 29 30 31 32 32 31 29 27 25 23 22 21 23 28 35 39 35 27 20 13 9 8 8 7 7 7 6 7 7 7 6 7 8 10 11 11 12 13 8 10
29 28 28 27 26 26 25 25 25 25 25 24 24 23 24 24 24 25 25 24 24 24 23 23 22 22 22 23 23 24 25 26 26 27 28 28 27 27 27 28 28 29 30 31 31 32 33 34 34 34 31 28 25 25 24 23 25 29 36 42 40 31 21 14 10 8 8 8 8 9 10 10 11 11 10 10 9 9 11 12 10 10 8 4 14
30 30 29 29 28 27 27 27 26 26 26 26 25 25 25 26 26 26 26 26 25 24 24 24 24 24 25 26 27 28 29 29 29 29 28 28 27 27 28 29 31 32 34 35 36 37 37 36 35 32 28 25 25 25 26 28 32 37 41 42 35 25 16 11 9 8 7 7 8 9 10 12 14 14 13 13 11 10 11 11 8 8 7 5 18
32 31 31 30 30 29 28 28 28 28 27 27 27 27 27 28 29 29 29 28 28 27 26 26 27 28 29 29 29 29 29 29 29 28 28 28 28 30 32 34 37 39 40 41 41 40 38 36 33 29 25 25 27 29 31 35 39 41 41 38 30 20 14 11 8 8 8 7 7 8 8 11 14 14 13 13 11 9 9 7 6 7 7 5 18
34 33 33 33 32 32 31 30 29 29 28 28 29 29 29 29 30 31 32 31 31 30 30 30 31 31 31 30 29 29 29 29 30 30 30 32 33 35 38 40 43 44 45 45 44 42 38 35 31 27 27 30 33 35 39 43 44 41 39 35 26 19 17 13 9 8 9 9 7 7 7 8 10 9 8 7 6 5 5 5 6 8 7 7 20
35 33 33 33 31 31 31 32 31 30 29 29 28 28 29 30 31 31 32 31 30 30 30 31 31 31 31 30 30 30 31 32 33 34 36 38 40 42 43 45 47 49 49 48 45 42 38 34 32 32 36 39 41 43 47 49 44 40 38 34 25 22 23 19 13 10 11 10 9 9 8 7 7 6 4 4 4 4 4 5 5 6 7 9 19
31 29 27 27 28 27 27 28 29 29 29 29 28 28 28 28 30 31 31 31 30 30 30 31 32 32 33 33 33 34 35 37 39 40 42 43 44 45 46 48 50 52 52 50 46 42 38 37 40 45 47 46 47 51 55 52 43 38 38 34 27 25 28 25 18 14 13 11 11 10 9 7 6 5 5 5 5 5 7 7 7 7 8 10 18
23 22 22 21 21 21 21 22 25 27 27 27 28 28 29 29 30 32 32 33 33 33 33 35 37 38 39 40 40 40 41 43 44 46 48 49 51 52 53 53 54 55 54 52 48 44 44 47 52 56 55 53 55 59 59 51 41 37 37 35 31 30 30 27 20 16 14 12 12 12 10 9 8 6 6 8 8 10 12 13 14 18 19 19 28
16 16 17 19 20 19 19 19 20 23 25 26 26 26 27 28 29 31 33 34 36 37 38 40 42 44 45 46 47 48 49 50 50 52 54 56 58 59 60 59 58 55 53 51 49 49 52 57 61 63 63 63 65 65 59 49 42 39 37 36 35 33 31 26 21 17 15 14 14 14 13 12 10 9 9 10 12 14 18 22 28 36 40 41 48
33 24 18 17 18 18 19 19 19 19 21 23 23 24 24 25 26 28 31 33 36 39 41 43 45 47 48 50 52 53 54 56 57 58 60 62 63 64 64 63 60 56 54 53 55 59 65 69 72 73 74 73 72 67 58 49 45 43 41 39 38 35 31 26 22 19 18 18 17 17 17 17 15 15 15 17 18 18 20 26 34 43 50 53 56
59 49 39 34 31 25 21 20 22 23 25 26 27 27 28 29 30 32 34 36 38 40 42 44 46 49 51 54 56 58 59 61 63 65 65 66 66 65 63 62 61 61 62 65 68 72 77 80 80 80 79 77 75 72 64 55 49 48 46 43 40 37 33 29 24 22 22 22 21 20 19 19 18 19 19 21 22 23 24 30 37 45 52 58 61
80 74 67 64 63 58 46 33 26 26 26 27 28 29 30 31 33 34 36 38 40 42 43 45 47 49 51 54 57 59 61 63 64 66 66 66 65 63 61 60 60 62 68 74 79 81 83 84 84 83 81 79 79 81 77 65 56 52 49 46 44 41 38 33 29 27 26 25 24 22 21 21 20 21 21 21 22 22 22 26 34 41 47 53 58
97 92 83 76 76 76 69 59 50 45 39 33 31 31 32 33 34 35 37 39 41 44 46 49 51 53 55 56 57 58 60 61 62 63 63 63 62 61 62 61 61 62 67 72 75 75 75 75 75 75 77 79 85 91 89 77 63 57 54 52 50 47 43 38 35 33 31 30 28 26 25 24 23 23 23 23 22 22 22 23 28 34 38 41 45
101 101 97 91 84 78 71 65 64 64 60 53 48 46 44 43 43 43 44 46 49 51 52 54 55 56 56 56 57 58 58 59 59 60 60 60 63 67 72 75 74 72 71 71 70 67 65 61 58 61 72 83 91 97 95 84 71 65 62 59 55 51 47 43 40 37 35 34 32 29 28 27 27 27 27 27 25 25 25 25 27 31 34 35 38
Wind_Speed
19 20 21 22 22 22 21 20 19 18 17 17 18 17 15 14 13 12 10 9 8 7 6 6 6 7 7 9 10 10 11 11 12 13 13 13 13 13 12 12 11 10 10 10 10 10 10 10 10 11 13 13 14 14 14 14 14 14 14 14 14 14 14 15 14 14 13 12 12 12 11 11 11 10 11 11 12 13 14 15 16 18 19 21 22
19 20 20 20 21 21 21 20 19 18 17 17 17 16 15 14 13 12 11 10 9 8 8 8 8 8 9 10 11 12 12 13 13 14 14 14 13 13 13 13 12 11 11 11 11 11 11 11 10 10 11 13 14 15 15 15 15 15 15 15 15 15 15 15 15 15 14 13 13 13 13 13 13 13 13 14 15 16 16 17 17 18 20 21 23
20 21 21 20 20 20 20 20 19 18 18 17 16 15 14 14 13 12 11 10 9 8 8 8 9 9 9 10 11 12 13 14 14 15 15 15 14 14 13 13 13 12 11 11 11 12 12 12 11 11 11 12 13 14 15 16 16 15 16 16 16 16 16 16 15 16 16 15 14 14 15 15 15 16 16 16 17 17 18 19 20 20 21 22 23
21 20 21 21 21 21 20 20 19 19 18 17 16 14 14 13 12 11 10 9 8 9 9 8 8 9 10 11 12 13 14 14 15 15 16 16 15 14 13 13 13 13 12 11 11 11 12 12 12 12 11 12 13 13 15 15 16 15 15 16 16 16 16 17 16 17 17 18 17 16 16 16 16 17 17 18 18 18 19 20 21 22 23 23 23
21 21 21 21 20 20 19 19 19 18 18 16 15 14 13 11 11 10 9 9 9 9 9 8 8 9 10 11 12 13 14 14 15 15 15 15 15 14 13 13 12 12 12 11 10 10 10 11 12 12 11 11 12 13 13 14 15 16 16 17 17 16 17 17 17 17 18 19 19 19 18 18 18 18 18 19 20 20 19 20 22 23 24 25 26
22 22 22 21 20 20 19 18 18 18 18 17 15 14 12 11 10 10 10 10 10 9 9 9 9 10 10 11 12 13 13 13 14 14 14 13 13 12 12 12 12 11 11 11 10 10 10 10 11 11 10 11 13 13 13 14 14 15 16 18 18 18 18 18 18 17 18 20 21 22 21 20 20 21 21 20 21 22 22 21 22 23 24 26 28
22 22 21 21 21 21 20 20 20 19 18 17 16 14 13 12 11 11 11 11 10 10 10 10 9 9 10 11 11 12 12 12 11 11 11 11 10 10 10 11 11 11 11 10 10 9 10 11 11 11 10 10 12 14 15 15 15 14 15 17 18 19 19 19 19 18 18 20 21 23 24 24 23 24 24 24 23 25 25 24 25 26 26 27 29
21 21 21 20 20 20 21 21 20 19 17 15 14 13 13 12 12 12 11 11 11 11 11 10 9 9 10 10 10 10 10 10 9 8 8 8 7 7 8 9 10 10 11 10 10 9 9 10 11 11 10 10 11 12 14 15 15 15 16 16 17 18 19 20 20 19 19 20 21 23 26 26 26 27 28 28 28 28 28 28 28 29 30 30 31
20 20 19 20 20 20 20 19 17 16 14 13 13 12 12 13 13 12 12 12 12 12 11 9 8 8 9 9 9 9 8 7 6 5 4 4 4 4 4 5 6 7 7 8 8 7 7 7 8 8 9 9 9 10 11 13 14 15 16 17 17 18 19 20 20 21 21 21 21 23 26 26 28 29 30 31 32 31 31 31 31 32 33 33 34
20 19 18 19 19 20 19 17 15 14 13 13 13 13 13 13 13 12 13 13 13 12 11 9 9 9 9 8 8 8 7 6 5 3 3 2 1 1 1 1 2 2 2 2 3 3 3 3 3 4 5 6 7 8 9 10 12 13 15 17 17 18 19 20 21 21 22 22 22 24 26 26 28 30 32 33 34 34 34 33 33 34 35 35 36
18 18 17 18 18 19 19 17 15 14 13 13 14 14 14 14 14 13 13 13 12 12 11 10 10 9 9 9 8 7 6 5 4 3 3 3 2 1 1 1 3 4 5 4 3 2 1 2 3 4 5 7 8 9 10 11 12 13 15 16 18 19 20 20 20 21 22 22 23 24 25 25 27 31 33 34 35 35 35 35 34 35 37 37 37
15 16 16 16 17 17 18 18 16 14 13 13 14 15 15 15 15 14 13 12 13 13 12 11 11 10 9 9 8 7 6 5 4 4 4 4 3 2 2 2 3 4 4 5 4 3 2 2 4 6 7 9 11 12 14 15 16 17 18 19 20 21 22 22 22 22 23 23 23 24 25 26 28 30 32 34 36 36 36 35 36 36 37 37 38
14 14 13 13 13 14 15 15 14 13 12 13 14 14 15 16 15 14 14 14 14 14 13 13 12 10 10 10 9 8 7 6 5 5 5 4 4 3 2 2 2 2 2 2 1 1 2 4 6 8 10 12 14 15 17 18 20 21 21 22 22 23 24 24 24 25 26 26 26 25 26 28 29 30 32 35 37 37 37 36 36 37 38 39 40
14 14 13 12 12 12 13 13 12 12 13 13 13 14 15 16 17 17 16 16 15 14 14 13 13 12 11 11 10 8 8 7 7 6 5 5 4 3 2 2 1 1 2 3 4 5 6 7 8 10 12 14 15 17 19 21 22 24 24 25 25 25 25 25 26 28 30 30 29 27 27 30 32 32 34 38 38 39 39 39 39 39 40 40 40
17 16 14 14 13 13 13 13 14 14 15 15 14 14 15 17 18 19 18 17 16 16 16 15 14 13 12 12 11 9 9 8 7 7 7 7 6 6 5 4 4 4 4 5 7 8 9 10 11 13 15 16 17 19 21 23 25 26 27 27 28 27 27 27 28 30 32 33 33 31 30 31 32 32 34 37 38 39 40 41 41 41 39 39 39
19 18 16 15 15 14 14 14 15 15 15 16 16 15 16 17 19 21 20 19 19 18 17 16 14 13 13 13 11 10 10 9 9 9 10 10 9 7 7 7 6 6 6 8 9 10 11 12 13 15 17 19 21 23 25 26 27 27 28 28 29 29 28 28 30 32 33 35 35 34 33 33 34 34 35 37 37 38 40 42 42 42 40 38 38
20 19 18 16 16 15 15 15 15 15 16 16 16 16 18 19 20 22 22 21 20 19 18 17 16 16 16 14 12 12 12 11 11 11 12 13 13 11 11 9 9 9 10 11 12 12 14 16 17 19 20 22 23 25 26 29 29 29 30 30 30 30 29 30 33 34 35 36 37 37 37 37 37 37 38 39 39 40 41 41 42 44 43 41 41
20 20 19 18 17 17 17 16 16 16 16 15 15 17 20 21 22 23 24 23 22 21 20 20 20 19 17 15 14 15 14 13 13 13 14 15 16 16 16 15 14 14 15 16 16 17 18 21 22 24 24 25 26 27 28 30 31 32 32 32 32 31 30 32 35 36 38 39 40 40 41 41 42 42 41 41 41 41 42 42 42 45 46 45 44
20 20 19 19 18 18 18 18 17 16 16 16 15 17 20 23 24 24 24 24 23 23 23 22 21 19 18 16 16 16 15 15 14 14 15 16 17 17 18 18 17 17 18 19 20 22 24 26 27 28 28 28 28 29 30 32 32 33 34 34 33 32 32 35 38 39 40 41 42 43 44 44 45 45 45 44 43 43 44 44 44 47 48 46 45
21 21 21 20 19 20 20 20 19 17 17 17 16 16 18 22 25 24 24 24 24 24 24 22 21 20 19 18 17 17 16 16 16 16 17 18 18 19 19 18 18 19 20 21 22 24 26 28 30 30 30 29 29 29 30 32 33 34 35 36 34 33 35 39 40 41 43 44 44 45 46 46 47 49 48 48 46 45 46 47 47 50 51 49 49
23 22 22 21 20 20 21 21 21 19 19 19 17 16 16 19 22 23 23 24 25 24 24 23 22 21 21 20 19 18 18 18 19 19 20 20 21 21 20 20 20 21 22 22 24 25 27 28 29 30 30 30 30 31 31 32 33 34 35 36 36 35 38 41 42 44 47 48 48 49 49 48 49 51 51 51 50 49 50 50 51 53 54 54 54
25 24 23 23 22 21 22 23 23 21 20 19 18 17 16 16 19 21 22 24 24 24 24 24 23 23 23 22 21 21 21 22 22 22 22 21 21 21 21 21 22 23 23 23 25 26 27 28 29 30 31 31 32 32 33 34 35 36 36 37 38 39 41 43 44 46 49 50 51 51 51 50 51 52 53 53 53 53 53 53 54 56 57 58 58
25 25 25 25 24 24 24 25 25 24 22 21 20 19 18 17 18 19 20 22 22 23 23 23 23 24 24 24 24 24 24 24 23 22 22 22 22 22 22 23 23 24 24 25 26 28 29 30 30 31 32 33 34 35 35 36 37 38 38 40 41 42 44 46 47 48 50 51 51 51 51 51 52 53 53 54 54 55 55 55 56 57 59 60 61
27 27 27 27 27 27 27 28 28 27 25 23 22 21 20 20 19 19 20 20 20 21 21 22 22 23 23 24 25 25 25 25 24 23 23 23 23 24 25 25 26 27 28 28 29 31 31 32 32 33 35 37 37 38 38 39 40 41 41 43 44 46 48 49 51 52 52 51 50 51 52 53 54 55 56 55 53 52 52 52 54 57 62 65 66
27 28 28 29 29 29 29 30 30 29 29 27 26 24 23 23 22 21 21 20 20 20 20 21 22 22 22 23 24 24 25 25 24 24 24 24 25 26 27 28 29 30 29 29 31 32 34 35 36 37 39 40 41 42 42 42 44 44 45 46 47 49 51 52 54 55 54 52 50 51 53 55 57 61 62 60 57 55 55 56 57 60 65 70 70
27 27 28 28 28 29 30 31 32 32 32 32 31 29 27 26 25 24 24 23 22 22 22 22 23 23 23 24 24 25 26 26 25 24 25 26 27 28 29 30 30 31 31 32 34 36 37 39 40 40 41 43 44 45 45 45 46 47 48 49 51 53 54 56 57 57 55 53 52 53 55 57 61 67 69 66 63 61 61 60 60 61 64 67 68
27 27 27 27 27 28 29 31 32 33 34 35 34 32 30 29 28 27 27 26 25 25 25 25 26 26 26 26 27 28 28 27 27 27 28 29 30 30 32 33 34 35 36 37 38 39 40 41 43 44 44 45 47 47 47 48 49 51 52 53 54 56 57 58 58 57 56 56 57 58 59 61 65 71 72 67 63 60 59 58 58 60 61 63 64
27 26 26 26 26 27 28 29 30 32 33 34 34 33 32 32 30 30 30 30 29 29 28 28 29 29 29 30 31 31 31 30 30 30 31 32 33 34 35 36 37 38 39 39 40 41 42 43 44 45 46 47 48 49 50 52 53 55 56 57 57 58 58 58 58 57 58 59 60 61 62 63 65 69 69 65 61 58 57 57 57 57 58 58 59
27 27 27 27 27 27 27 28 29 30 30 31 31 32 32 33 32 32 33 33 33 32 31 31 31 32 32 33 34 34 34 33 33 34 35 36 37 37 38 39 39 40 41 42 43 44 45 45 46 47 48 49 50 52 53 55 57 59 60 60 59 58 58 59 59 59 60 61 61 61 62 63 63 64 64 62 60 58 58 57 57 56 55 55 55
28 28 29 28 29 29 29 29 30 30 30 30 30 31 31 32 33 34 34 35 35 35 35 34 34 34 35 35 36 36 36 36 37 37 37 38 38 39 40 40 41 42 43 44 45 46 47 47 48 49 51 52 53 55 57 58 60 61 61 61 60 59 60 61 62 62 62 62 61 60 60 60 61 61 61 60 60 59 58 57 56 55 55 54 55
29 29 30 30 30 30 30 30 30 31 31 30 30 31 31 32 33 34 35 36 36 37 37 37 37 37 37 37 37 38 38 39 39 39 39 40 40 41 42 43 44 44 45 46 47 47 48 49 50 52 53 55 57 58 59 60 61 62 63 63 62 62 62 64 66 66 64 61 58 57 57 58 58 60 61 61 60 59 58 57 56 55 56 57 58
30 30 31 31 30 30 31 31 31 31 31 31 31 32 33 33 34 35 35 36 37 38 38 39 39 39 39 39 39 40 40 41 41 41 42 42 43 44 45 45 46 46 47 47 48 49 50 52 53 55 56 58 59 60 61 61 63 64 65 65 64 64 65 67 69 68 64 59 56 56 57 57 56 58 60 60 58 58 57 57 57 57 58 60 61
31 32 32 32 32 32 32 32 33 33 33 33 33 33 34 35 35 36 36 37 37 38 39 40 40 40 41 41 41 42 42 43 43 44 45 45 46 47 47 47 48 48 49 49 50 51 53 54 56 58 59 60 61 61 62 63 65 66 66 67 67 68 68 69 69 66 62 58 56 57 56 55 55 56 56 56 56 57 58 58 58 58 59 60 62
33 33 33 34 34 34 34 34 34 35 35 35 35 35 35 36 36 36 37 37 38 39 40 41 42 42 43 43 44 44 45 45 46 47 47 48 48 48 49 49 50 51 51 52 53 54 56 57 59 60 61 62 63 64 64 65 66 67 68 69 69 69 68 67 65 61 58 57 57 57 56 55 55 56 56 55 56 58 59 58 57 57 58 60 62
35 34 35 35 35 36 36 36 37 37 37 37 37 37 38 37 37 38 38 38 39 40 41 42 43 44 45 46 46 47 47 48 48 48 49 49 49 50 50 51 52 53 54 55 56 57 58 60 61 62 64 64 65 66 67 67 68 69 69 70 69 68 66 64 61 58 57 58 58 58 57 56 56 56 57 58 59 59 60 59 59 58 60 61 63
36 36 36 37 37 38 38 39 39 39 40 40 40 40 40 40 40 40 40 40 41 42 43 44 45 45 46 47 48 48 48 49 49 50 50 50 51 52 53 54 55 55 56 57 58 59 61 62 63 65 66 66 67 68 68 69 70 70 70 69 67 65 63 61 59 58 58 59 59 58 57 57 57 57 58 60 62 62 62 63 63 63 64 65 67
38 38 38 38 39 40 40 40 41 41 42 42 43 43 43 43 42 43 43 43 44 44 45 45 46 46 47 48 48 49 49 50 51 51 52 52 53 54 55 56 57 57 58 59 60 61 63 64 65 66 67 68 69 70 70 70 71 71 69 67 65 63 61 59 58 59 59 59 58 58 58 58 59 59 60 63 65 65 64 64 64 64 65 67 70
40 40 40 40 41 41 42 42 43 43 44 44 44 45 45 45 45 45 46 46 46 46 46 47 47 48 49 49 50 50 51 52 52 53 53 54 55 56 57 58 58 59 60 61 62 63 64 65 66 68 69 71 71 72 72 72 71 70 67 65 63 60 58 58 59 58 58 57 57 58 59 60 60 60 60 62 63 64 63 62 60 61 63 66 66
42 42 42 43 43 43 43 44 44 44 45 45 45 45 46 46 47 47 47 47 48 48 48 49 49 50 50 51 51 52 52 53 53 54 55 56 57 58 59 59 60 61 62 62 63 64 65 66 68 70 72 73 73 72 72 71 69 67 66 63 59 57 56 57 58 56 56 56 56 56 57 58 58 59 59 59 61 61 60 59 59 60 63 65 61
45 45 45 45 45 45 45 45 46 46 46 46 46 46 46 47 48 48 49 49 50 50 50 51 51 51 52 52 52 53 54 54 56 57 58 59 59 60 61 61 61 62 62 63 64 66 67 68 70 72 74 74 74 73 72 69 67 66 64 60 57 55 55 56 56 55 56 56 56 55 54 54 54 55 56 56 57 57 58 60 61 62 63 63 55
47 48 48 48 48 48 48 48 48 48 48 48 48 48 48 48 49 49 50 50 51 51 51 52 52 52 53 54 54 56 57 57 59 59 60 61 61 61 61 62 62 62 63 65 66 68 69 70 72 74 75 75 74 72 69 67 65 65 63 58 55 54 55 56 56 56 57 57 58 57 56 54 52 52 53 54 55 57 60 63 63 61 61 61 53
49 50 50 50 51 50 51 51 51 51 51 51 50 50 50 50 51 51 52 52 52 53 53 54 54 55 56 57 58 59 59 60 60 61 61 61 61 61 61 62 63 64 65 66 68 69 70 72 74 75 76 75 73 69 66 65 65 63 60 57 55 55 56 56 57 58 59 60 60 60 60 58 54 53 54 56 57 59 60 61 61 59 58 57 50
48 49 51 52 52 52 52 53 53 53 53 53 53 53 53 53 54 54 55 55 56 56 57 57 58 59 60 60 60 60 61 61 61 61 61 61 61 62 63 64 64 65 67 68 69 71 72 73 74 75 75 74 70 67 65 65 64 61 58 56 55 56 57 57 58 59 60 61 62 62 62 61 59 57 58 59 59 59 59 58 58 58 56 53 49
51 51 52 52 53 53 54 54 55 55 55 55 55 56 56 56 57 57 58 58 59 59 60 60 61 61 62 62 62 62 62 62 62 62 62 63 63 64 65 66 66 67 68 69 70 71 72 73 73 74 74 71 68 66 66 65 63 60 58 57 57 57 58 59 59 60 60 61 61 61 62 61 60 60 61 61 61 61 60 59 58 56 53 50 48
55 55 55 56 56 56 56 56 57 57 57 57 57 58 58 58 59 59 60 61 61 61 62 62 62 63 63 63 63 63 63 64 64 64 63 64 64 65 66 67 68 69 70 70 71 71 72 72 72 72 72 70 68 67 65 64 62 60 59 59 59 59 60 60 60 59 59 59 59 59 58 58 59 60 62 62 62 61 60 58 54 51 47 44 42
57 57 57 57 58 58 59 59 59 59 60 60 60 61 61 61 62 62 62 63 63 63 64 64 64 64 64 64 64 65 65 65 65 64 64 64 64 65 66 68 69 70 71 71 71 71 71 71 71 71 71 69 68 66 64 62 61 60 59 59 59 59 59 58 58 57 56 56 56 55 54 55 57 58 59 60 59 57 56 52 47 43 39 37 34
55 56 57 58 59 60 60 60 61 61 62 62 63 63 64 64 64 64 64 65 65 65 65 66 66 66 66 66 65 65 65 65 65 65 65 65 66 66 67 68 69 70 71 71 71 70 70 70 70 70 69 67 66 64 62 60 60 59 59 58 57 56 56 56 55 54 54 53 52 51 51 51 51 52 53 53 52 52 50 47 42 38 34 32 30
51 50 51 54 56 59 60 61 61 61 62 63 63 64 64 65 65 66 66 66 67 67 67 68 68 68 67 67 67 67 67 67 67 67 67 67 68 68 68 68 68 68 69 69 69 69 69 69 69 68 67 65 63 62 61 60 59 58 57 56 55 53 54 53 53 52 52 51 49 49 49 49 49 48 47 46 45 44 43 41 38 35 32 30 29
51 48 47 47 48 50 54 58 61 62 63 64 64 65 65 66 66 67 67 67 68 68 69 69 69 69 69 68 68 68 68 68 68 68 69 69 70 70 70 69 68 68 67 68 68 68 68 68 68 67 65 64 62 61 61 60 58 56 55 55 53 53 52 52 51 50 50 49 48 49 49 49 48 47 46 44 42 42 41 39 36 33 31 29 29
48 50 50 50 49 48 49 52 55 58 60 62 64 65 66 66 66 67 67 67 68 68 68 68 69 69 69 69 69 69 69 70 70 70 70 70 70 70 70 70 70 69 69 68 68 68 68 69 68 68 67 66 63 61 60 59 58 55 54 53 52 52 51 51 50 49 48 47 47 47 48 48 47 46 45 44 42 41 41 41 38 35 32 30 29
43 47 49 51 54 54 55 55 56 56 58 59 61 62 64 65 65 66 66 66 67 67 67 68 68 68 68 68 69 69 69 70 70 70 70 69 69 68 68 69 69 70 70 69 69 69 70 69 69 68 67 66 64 62 61 59 57 55 53 52 52 52 51 50 49 48 47 46 45 46 46 46 46 45 44 43 42 41 40 40 40 38 36 33 31
Wind_Direction
213 212 211 206 200 196 195 194 192 190 185 182 182 181 180 180 181 180 180 186 193 200 212 223 234 244 253 261 267 271 274 275 277 280 282 284 287 290 292 293 295 301 305 310 319 329 340 347 350 350 348 344 339 334 332 331 331 333 335 338 342 346 349 352 356 360 1 360 359 358 356 354 353 352 350 349 349 350 353 354 355 355 356 357 358
204 204 204 203 199 195 193 191 190 189 187 188 188 184 179 178 177 176 179 186 195 208 224 236 244 250 255 260 267 272 275 276 277 278 281 283 286 288 291 294 296 298 300 303 310 318 326 333 339 343 345 345 343 339 335 331 330 331 332 334 336 338 340 342 346 350 351 352 352 351 349 347 347 346 345 345 344 344 344 345 345 346 347 350 351
199 199 196 194 194 192 190 189 190 191 191 193 192 187 181 178 177 180 186 193 203 217 230 241 248 253 257 260 263 267 271 274 275 277 279 280 282 285 288 292 296 298 299 303 309 315 318 321 326 333 338 340 342 341 337 333 331 329 328 329 329 330 333 335 339 341 342 344 346 346 344 343 342 342 341 342 342 341 341 340 340 341 342 344 344
195 196 195 193 192 190 190 192 193 194 194 194 192 187 182 180 180 186 193 201 213 224 230 235 239 245 252 259 263 267 270 272 273 274 275 275 276 280 283 287 292 297 300 305 310 313 314 315 318 325 330 331 332 335 335 333 330 327 324 322 321 324 326 329 333 335 335 336 339 340 339 338 337 338 338 338 338 338 338 337 337 338 338 337 338
190 191 194 195 193 191 192 192 192 192 193 192 189 187 184 183 185 193 201 209 217 224 229 230 232 238 249 259 266 271 273 273 272 270 269 270 272 274 278 281 285 291 297 304 309 312 313 313 315 320 322 319 317 320 325 327 327 325 321 317 318 319 321 322 326 330 330 330 331 331 332 332 331 331 331 332 332 332 333 333 333 333 333 332 332
190 190 194 195 194 192 190 188 188 188 189 189 188 188 188 188 191 198 206 212 216 220 222 225 232 244 258 269 273 274 273 271 270 270 269 267 265 265 268 273 277 282 288 295 303 310 312 310 312 315 314 309 306 308 313 319 323 323 319 317 318 318 318 318 321 325 325 324 324 324 324 325 325 324 324 325 325 324 325 327 327 327 328 328 327
193 191 194 197 197 194 189 187 187 187 188 189 189 190 191 191 195 201 205 209 213 215 217 221 231 247 262 270 273 273 271 268 266 266 267 266 262 258 256 259 266 273 279 284 292 300 303 304 305 306 304 302 300 303 309 313 317 319 317 315 317 318 318 316 318 321 321 319 319 319 319 321 321 319 318 319 320 319 319 322 322 322 323 324 324
195 193 194 198 200 198 195 193 192 191 191 191 191 192 193 194 199 203 204 206 209 213 216 219 228 246 257 260 262 263 262 262 262 263 265 266 264 259 251 249 255 262 272 280 285 290 293 295 297 299 300 298 298 301 305 309 312 315 314 313 317 319 317 315 317 319 317 316 315 313 314 316 317 316 315 316 316 316 317 319 320 319 320 321 321
195 194 194 196 201 202 201 197 195 194 193 194 195 196 197 200 204 204 203 205 210 215 217 219 226 240 249 251 249 247 247 251 256 261 266 270 268 261 250 244 245 251 261 269 275 280 282 286 290 294 298 300 302 304 304 307 312 315 315 318 322 323 320 318 319 319 317 317 314 310 310 312 312 310 311 312 313 314 316 318 318 317 317 318 318
190 188 187 193 199 203 201 199 198 199 200 202 204 205 205 207 209 208 207 209 212 216 218 220 226 233 238 240 238 236 234 235 238 244 251 256 258 250 230 211 190 177 195 222 245 264 278 297 309 315 319 320 321 323 321 320 322 322 322 325 328 326 324 323 322 320 319 319 315 311 311 311 307 304 306 307 308 310 313 316 317 315 314 316 316
181 176 178 187 195 199 200 200 202 204 207 210 212 212 213 213 213 213 213 214 215 217 218 221 226 230 230 230 230 228 225 224 223 221 221 221 221 212 162 107 102 105 112 118 121 110 69 23 6 356 348 341 337 333 329 326 324 322 322 324 324 322 321 321 321 319 316 316 314 311 311 310 302 300 302 303 303 306 310 313 314 312 312 315 316
177 174 178 185 190 194 199 202 205 208 211 214 216 217 216 216 216 216 216 216 216 217 218 221 225 227 225 225 225 220 216 217 216 215 214 212 210 200 164 123 98 96 101 106 110 103 66 17 358 347 336 330 328 325 321 320 319 318 319 321 321 320 319 320 321 317 312 310 309 308 308 305 299 299 300 299 301 306 309 310 310 310 311 315 316
179 178 184 188 188 191 197 202 207 211 215 218 219 220 220 218 217 217 216 217 216 216 219 222 223 222 221 222 221 216 214 218 221 222 221 214 206 194 175 144 101 85 87 80 59 359 345 338 335 330 323 321 320 316 314 314 313 315 316 317 318 317 318 320 321 316 311 309 308 307 305 301 300 300 299 299 303 307 308 309 309 309 312 314 315
188 189 193 196 198 199 201 203 207 213 219 221 221 221 221 219 218 217 219 218 216 216 221 223 222 217 216 218 218 216 218 224 230 233 233 231 228 224 220 215 245 307 317 317 309 309 314 315 316 314 310 310 308 306 306 306 306 309 312 313 313 312 314 317 316 312 310 309 310 310 306 304 304 303 301 302 306 306 306 307 307 308 311 313 313
195 198 200 204 209 211 211 210 212 216 221 224 224 222 220 219 219 219 220 219 216 216 219 222 223 220 217 217 216 218 225 231 239 247 250 247 239 234 236 240 246 268 284 290 294 302 307 306 305 303 301 301 300 299 298 298 300 304 306 308 308 307 310 312 309 307 307 307 308 309 307 306 307 306 304 305 305 304 303 304 305 307 309 310 310
197 201 203 207 213 218 221 221 221 224 227 228 229 227 222 220 219 218 219 218 217 218 219 221 224 223 220 220 219 222 230 238 246 256 263 264 258 250 247 243 244 256 270 278 285 293 296 296 296 296 296 295 293 292 292 293 295 298 300 301 301 303 307 306 303 303 304 304 305 305 305 304 305 307 306 305 305 303 302 302 303 303 304 305 307
198 202 205 210 216 222 228 231 231 233 234 233 233 230 225 221 219 218 218 218 218 219 220 221 222 221 221 221 222 224 231 239 246 254 262 269 273 275 272 267 267 273 280 282 284 286 289 292 293 293 292 289 285 285 286 288 291 294 296 297 297 301 304 301 299 300 300 301 303 304 304 304 305 307 307 306 306 304 302 303 303 301 302 304 306
201 203 206 211 216 223 231 235 238 240 241 239 236 231 226 222 220 219 217 217 218 218 220 221 222 223 222 220 219 221 226 233 240 247 255 262 270 275 277 277 278 281 284 285 286 288 290 293 294 294 293 289 284 282 281 283 287 290 293 294 296 300 301 297 295 296 297 299 303 303 303 304 305 305 306 306 305 304 303 304 303 301 303 305 304
206 207 208 211 215 222 229 233 238 244 249 250 246 237 227 222 221 221 218 217 218 219 221 223 225 226 226 223 220 220 223 229 235 240 247 254 260 265 268 270 274 277 280 283 286 289 291 292 293 293 292 289 286 284 281 282 285 287 289 292 296 298 294 290 291 293 294 297 300 300 300 301 302 302 303 303 302 303 304 305 302 301 302 303 301
214 212 212 214 215 219 225 230 234 242 250 255 255 247 233 225 223 222 220 218 219 222 224 226 228 229 228 227 226 225 227 233 238 243 247 251 254 257 260 263 268 271 272 276 280 283 286 288 289 289 288 287 287 285 284 283 284 286 288 292 295 294 290 288 291 293 293 295 297 297 297 298 298 299 300 300 299 300 302 302 301 299 299 299 298
220 219 219 220 219 219 223 228 232 237 245 253 258 255 244 231 226 225 223 221 222 224 226 227 229 229 228 227 227 227 231 235 240 245 250 254 257 258 259 262 264 266 268 271 275 278 279 280 281 282 283 284 285 285 284 284 284 286 290 293 294 292 290 290 293 294 294 296 297 295 295 296 295 296 297 297 297 298 298 298 298 297 296 296 295
220 221 223 224 224 221 222 226 229 234 240 248 256 258 254 241 232 229 227 226 226 228 230 230 229 227 226 226 225 226 230 235 240 245 251 256 259 261 262 264 265 266 268 271 274 275 275 276 277 277 278 279 280 281 282 283 285 288 291 293 294 294 294 294 295 296 296 297 297 296 296 296 295 294 294 294 295 295 296 296 295 294 293 292 291
218 219 220 222 222 220 221 224 226 229 235 243 251 256 255 249 242 237 234 232 231 232 233 233 230 226 224 224 225 227 231 237 242 247 252 256 259 261 264 266 267 269 270 270 271 271 272 274 275 277 278 278 278 280 282 285 288 291 293 293 294 295 295 296 298 298 298 298 298 299 299 298 296 294 292 292 293 293 293 292 292 291 290 287 285
215 217 217 218 219 218 218 221 223 226 230 236 243 250 254 252 248 244 241 238 237 236 236 236 234 231 228 227 228 231 236 241 246 249 253 256 259 261 264 265 266 267 268 269 270 271 273 275 277 279 280 281 281 283 287 290 292 294 294 294 294 293 293 295 298 299 299 300 302 303 301 300 298 295 293 292 290 290 290 290 290 290 288 285 284
215 217 219 219 219 218 217 218 221 225 228 231 235 241 247 250 249 247 246 244 242 241 240 240 240 238 236 235 235 238 242 246 250 252 255 257 259 260 262 264 265 267 269 271 273 274 275 277 278 279 280 281 283 286 289 291 292 293 293 293 294 294 294 295 297 298 300 302 303 303 302 301 300 297 293 291 290 291 292 293 293 291 288 286 286
217 219 220 221 221 220 219 218 219 222 227 230 231 232 237 243 246 247 247 245 245 245 244 243 244 244 243 243 244 246 249 251 252 254 255 257 258 260 262 264 265 268 269 270 271 273 275 277 279 281 282 284 285 287 289 290 292 293 294 295 296 296 296 296 297 299 301 303 304 304 302 302 301 297 294 294 296 297 297 297 295 292 290 290 291
218 219 220 221 222 222 222 221 220 221 224 228 230 230 231 235 240 244 246 246 245 245 245 245 246 247 247 246 247 249 251 251 252 254 256 258 259 261 263 264 266 269 271 273 274 277 279 280 282 284 285 286 287 289 291 293 294 295 296 297 297 298 298 298 298 301 303 305 306 305 303 303 301 299 299 301 301 300 299 298 296 294 293 294 295
220 222 224 225 225 226 227 227 227 228 228 230 232 232 232 233 235 238 243 245 246 246 246 246 247 247 247 247 249 251 252 253 253 254 256 259 261 263 266 268 272 275 278 280 281 282 282 283 284 285 287 288 290 292 294 295 296 296 296 296 297 298 298 298 299 301 304 305 304 303 303 302 301 301 302 304 304 303 302 301 299 298 296 295 295
224 226 228 230 231 231 232 232 233 234 235 236 237 236 236 236 235 235 238 241 244 246 246 247 247 248 248 249 251 253 253 254 255 256 258 262 265 268 271 274 276 278 280 281 282 283 284 285 286 287 289 290 291 292 294 295 296 296 296 296 297 298 299 299 299 302 303 303 303 303 302 302 301 301 302 303 304 304 303 301 300 299 297 296 296
229 230 232 234 234 234 234 235 235 237 238 239 241 241 241 241 240 239 239 240 242 245 246 247 248 248 249 251 252 253 254 256 258 260 262 265 268 271 273 275 277 278 279 280 281 283 284 286 288 289 290 291 291 293 294 295 296 296 296 297 298 300 302 302 301 302 303 302 302 302 301 301 301 301 302 304 304 304 302 300 299 297 296 295 295
234 234 234 235 236 237 237 237 238 239 240 241 242 244 245 245 244 244 244 244 244 245 246 247 248 248 249 250 252 253 256 258 261 263 266 268 270 272 273 275 276 277 279 281 282 284 285 287 288 288 289 290 291 293 294 295 296 296 296 297 298 301 304 304 303 303 303 302 301 301 301 301 301 302 303 304 304 304 303 301 299 297 295 295 295
238 238 238 238 238 239 241 241 241 242 242 243 243 244 245 246 247 247 247 247 247 247 247 248 249 250 251 252 253 255 257 260 263 266 268 270 272 273 274 276 277 278 280 281 282 283 284 285 286 287 288 290 291 292 293 294 295 296 297 299 301 303 305 305 304 303 303 302 302 302 302 301 301 302 302 303 303 303 302 300 299 298 296 296 295
242 243 243 243 242 242 243 245 245 245 245 245 245 245 246 247 248 249 250 250 250 250 251 252 253 253 254 255 256 258 260 262 265 267 269 271 272 274 275 276 278 279 280 280 281 282 283 284 285 287 288 289 290 292 293 294 296 298 300 303 305 305 305 304 303 302 301 301 302 302 301 300 301 301 302 301 301 302 303 302 301 298 297 297 297
245 246 246 247 247 246 246 247 247 247 247 247 247 247 247 248 249 251 251 252 253 254 255 256 257 257 258 259 259 261 262 264 266 268 269 271 272 274 275 277 277 279 280 280 281 282 283 285 286 287 288 289 291 293 295 296 299 301 302 304 305 305 304 303 302 300 300 301 302 302 301 301 301 302 303 304 304 305 306 305 302 300 301 301 299
246 247 248 248 248 248 248 248 249 249 249 250 249 249 249 249 250 251 252 254 255 255 256 256 257 258 259 260 261 262 264 265 267 268 270 271 273 274 275 276 278 279 280 281 282 283 285 286 287 288 289 291 293 295 297 299 300 302 303 304 305 304 304 303 301 301 302 303 304 303 303 304 304 304 306 306 306 308 309 308 307 307 307 305 302
248 248 248 248 249 249 249 249 250 251 251 252 252 252 252 252 253 254 254 255 256 257 257 257 258 259 260 261 262 263 264 266 267 269 270 271 273 274 275 277 278 279 280 282 283 284 285 287 288 289 291 293 295 296 298 300 302 303 304 304 304 304 303 302 302 303 304 305 305 305 305 305 305 305 306 307 308 311 312 312 313 313 309 307 308
249 248 248 248 248 249 249 249 250 251 252 252 253 254 255 255 256 256 257 257 257 257 258 259 260 260 261 262 263 264 265 266 268 269 270 272 273 275 276 277 279 280 281 282 284 285 286 288 289 291 292 294 295 297 299 301 303 303 304 304 304 303 302 302 303 305 306 305 305 306 306 306 306 308 309 310 312 313 314 314 314 312 308 309 312
250 250 250 249 249 249 250 250 251 251 252 252 254 255 256 257 257 258 258 259 259 259 259 260 261 261 262 263 264 265 266 267 268 270 272 273 274 275 276 278 279 280 281 283 284 286 287 289 290 292 293 294 296 298 300 302 302 302 302 303 301 300 300 302 304 305 305 305 306 307 307 307 308 309 311 311 312 312 312 312 312 310 310 313 315
252 252 252 251 251 251 251 251 252 253 253 254 255 256 258 259 259 260 260 260 261 261 262 262 262 263 264 264 265 267 268 269 270 271 272 273 274 275 277 278 279 281 282 284 285 287 288 289 291 292 293 295 296 298 300 302 301 301 301 301 298 297 299 302 303 304 304 306 307 307 306 307 308 308 309 310 310 310 310 310 312 313 315 319 318
252 253 253 253 253 252 252 253 253 254 255 256 257 258 258 259 260 261 261 261 262 263 263 264 264 265 265 266 267 268 269 270 270 271 272 273 275 276 278 279 280 282 283 284 285 287 288 289 291 292 293 295 297 299 301 300 300 300 300 297 295 296 299 301 302 303 304 306 307 307 307 306 306 307 307 308 308 309 309 312 315 317 319 323 321
251 252 253 254 254 253 253 253 254 255 256 257 257 258 259 259 260 261 262 262 263 264 264 265 265 265 266 266 266 267 267 268 269 271 272 274 276 277 278 280 281 282 283 284 285 287 288 290 291 292 294 296 298 300 299 299 299 299 298 294 293 296 299 300 302 303 305 306 307 307 307 307 306 306 306 306 308 310 311 313 317 319 322 326 325
248 250 252 253 254 254 254 254 255 255 256 257 257 258 258 259 260 261 261 262 263 263 263 264 264 264 264 265 265 266 268 269 271 272 274 275 276 277 278 279 280 281 282 283 285 287 289 290 292 293 294 296 298 298 298 298 298 298 295 292 292 296 299 301 303 304 305 306 307 307 307 307 307 305 304 303 305 307 308 311 316 321 324 328 331
249 250 251 253 254 254 255 255 256 256 256 257 258 258 259 259 259 260 260 261 261 262 262 262 263 263 264 265 267 268 269 271 272 273 274 275 275 276 277 278 279 280 282 284 286 288 289 290 292 293 295 296 297 296 296 297 297 296 293 291 291 295 299 301 303 304 304 306 307 307 307 308 308 306 304 303 302 304 306 309 315 320 324 329 336
253 253 253 253 254 255 256 256 256 257 257 257 257 258 258 259 259 260 260 261 261 262 263 263 264 265 266 267 268 269 270 271 272 273 273 274 275 275 276 278 280 282 284 285 287 288 289 290 291 293 294 294 294 294 295 296 295 294 293 292 292 294 298 300 301 302 303 305 306 306 308 310 310 309 308 308 307 309 312 315 318 323 327 332 338
255 255 255 254 254 254 254 254 255 255 256 256 257 257 258 258 259 259 260 261 262 262 263 264 265 266 267 267 268 269 270 271 271 272 273 274 275 277 278 279 281 283 284 286 286 287 288 289 290 291 292 292 292 293 294 294 294 293 293 293 293 294 296 298 300 301 302 303 305 306 309 311 312 312 312 312 313 315 318 322 325 328 333 336 339
255 254 253 252 252 252 252 252 252 253 253 254 255 256 256 257 258 258 259 260 261 262 262 263 264 265 266 267 268 269 270 271 272 273 274 275 276 277 279 280 282 283 284 285 286 287 287 288 289 289 290 290 291 292 292 292 292 293 293 293 293 294 295 296 298 299 301 303 304 307 309 311 312 311 312 313 315 317 320 323 327 330 333 335 336
253 251 250 250 250 250 250 251 251 252 252 253 254 255 256 257 258 259 259 260 261 262 262 263 264 265 266 267 267 268 269 270 271 272 273 274 275 276 278 279 281 282 283 284 285 285 285 286 286 286 287 288 289 290 290 290 291 292 292 293 293 293 294 295 296 298 300 302 304 306 309 310 310 310 310 311 313 315 317 319 322 324 326 327 326
251 250 250 250 250 249 248 249 250 251 251 252 253 254 255 256 257 258 259 260 260 261 262 263 263 264 265 266 267 268 269 270 270 271 272 273 274 275 276 278 279 280 281 282 283 283 283 283 283 284 285 287 288 289 289 289 290 290 291 291 292 292 293 293 295 296 298 300 302 304 306 307 307 307 307 306 307 309 311 313 315 316 315 315 314
245 245 245 246 248 248 247 247 248 249 250 251 252 253 254 255 255 256 257 258 259 260 261 262 263 264 265 266 267 268 269 270 271 271 272 274 275 276 277 277 278 278 279 280 281 281 282 282 283 283 284 286 288 289 289 288 288 288 289 289 290 291 291 292 294 295 297 299 301 303 304 304 305 304 304 304 303 304 305 307 307 307 306 304 302
239 242 243 244 245 247 247 247 248 250 251 252 252 253 254 255 256 257 258 259 260 261 262 263 264 265 266 267 268 269 270 271 272 273 274 275 276 277 277 277 277 277 277 277 279 281 283 284 284 284 285 286 288 289 287 287 286 287 287 288 288 289 290 291 292 294 295 297 299 300 301 301 302 302 301 301 302 302 302 303 304 304 304 302 299
238 242 245 246 247 249 250 250 251 251 252 253 254 255 255 256 257 258 259 260 261 262 263 264 265 267 268 269 270 271 271 272 273 274 274 275 275 275 274 274 275 275 276 278 280 283 285 285 286 286 286 287 288 287 286 285 285 285 286 287 287 287 288 289 290 292 293 295 296 298 299 299 299 299 298 298 299 299 299 299 301 303 305 305 304